Location: Unspecified
(0.0000°N, 0.0000°E)
Time: 13:09:21
(UTC+00:00)

COSMOS 2508 - Pass Details

Date: 08 October 2020
Orbit: 1484 x 1504 km, 82.5° (Epoch: 26 October)

Event Time Altitude Azimuth Distance (km) Brightness Sun altitude
Rises 19:03:27 0° 204° (SSW) 4,628 ? -18.9°
Reaches altitude 10° 19:06:42 10° 213° (SSW) 3,648 ? -19.7°
Maximum altitude 19:14:16 33° 273° (W) 2,306 ? -21.6°
Drops below altitude 10° 19:21:53 10° 334° (NNW) 3,648 ? -23.5°
Sets 19:25:10 0° 343° (NNW) 4,628 ? -24.3°
